Location: *
(41.7278°N, 0.5358°E)
Time: 20:28:22
(UTC+00:00)

Daily predictions for brighter satellites

Satellite Brightness Start Highest point End
(mag) Time Altitude Azimuth Time Altitude Azimuth Time Altitude Azimuth
CZ-4 R/B 2.6 17:26:36 10° ESE 17:29:44 22° ENE 17:32:55 10° NNE
SMAP 3.2 17:25:22 10° SSE 17:30:02 87° W 17:34:42 10° NNW
DELTA 2 R/B (1) 4.0 17:24:47 10° WSW 17:30:16 59° SSE 17:35:46 10° E
Cosmos 1610 Rocket 4.5 17:24:35 10° S 17:30:41 76° E 17:36:49 10° N
ATLAS CENTAUR R/B 4.3 17:28:02 10° W 17:33:00 45° NNW 17:45:52 10° NE
Cosmos 1125 Rocket 3.6 17:30:03 10° SSW 17:35:14 82° WNW 17:40:29 10° NNE
Cosmos 1300 2.6 17:31:41 10° N 17:35:30 78° E 17:39:18 10° S
YAOGAN 6 3.1 17:32:09 10° SE 17:35:35 37° ENE 17:38:59 10° N
Cosmos 2237 Rocket 2.5 17:30:19 10° NNW 17:35:42 44° ENE 17:41:02 10° SE
AQUARIUS 4.3 17:31:46 10° SSE 17:36:16 82° WSW 17:40:47 10° NNW
Cosmos 1626 2.3 17:34:39 10° SSW 17:38:20 75° W 17:42:03 10° N
COSMO-SKYMED 1 3.1 17:35:45 10° NNE 17:39:50 39° E 17:43:54 10° SSE
NOAA 12 4.0 17:35:31 10° SSE 17:40:43 77° ENE 17:45:58 10° N
Cosmos 2333 Rocket 2.9 17:35:48 10° NNW 17:41:26 60° WSW 17:46:59 10° S
IRS-1C Rocket 4.4 17:36:26 10° S 17:41:41 73° WSW 17:46:57 10° NNW
Cosmos 1758 Rocket 4.0 17:38:45 10° SSE 17:42:46 39° E 17:46:47 10° NNE
TIMED 4.5 17:39:29 10° NNW 17:43:52 71° ENE 17:48:12 10° SSE
CSL-04 Rocket 4.4 17:39:51 10° SE 17:44:34 31° ENE 17:49:22 10° N
Envisat 3.0 17:40:18 10° SSE 17:45:22 78° ENE 17:50:28 10° N
ADEOS Rocket 4.4 17:41:23 10° NE 17:46:23 21° E 17:51:39 10° SE
Cosmos 1626 Rocket 4.2 17:43:11 10° SSW 17:47:26 57° W 17:51:43 10° N
NOSS 0 Rocket 3.9 17:41:41 10° NNW 17:47:56 82° ENE 17:54:07 10° SSE
ATLAS 5 CENTAUR R/B 4.1 17:46:05 10° WNW 17:48:14 13° NNW 17:50:30 10° N
Cosmos 962 Rocket 4.5 17:43:36 10° S 17:49:36 62° E 17:55:40 10° NNE
Cosmos 1455 3.3 17:47:25 10° NNE 17:50:27 22° ENE 17:53:26 10° SE
ERBS 2.4 17:49:17 10° SW 17:52:37 72° NW 17:55:37 12° NE
Okean-O 2.6 17:52:15 10° SSE 17:56:40 86° ENE 18:01:08 10° NNW
SL-16 R/B 3.1 17:53:01 10° N 17:57:48 27° NE 18:02:33 10° ESE
Cosmos 724 4.3 17:53:33 10° SSW 17:59:33 89° WNW 18:05:28 10° NNE
Cosmos 1269 Rocket 3.9 17:54:41 10° NNW 17:59:59 73° ENE 18:05:15 10° SSE
Nadezhda 3 Rocket 4.3 17:54:15 10° N 18:00:34 77° W 18:06:53 10° S
CZ-4C R/B 3.3 17:53:12 10° NW 18:00:36 78° WSW 18:08:56 10° SSE
Meteor 1-21 Rocket 4.2 17:56:14 10° S 18:01:45 67° E 18:07:23 10° NNE
Cosmos 2219 3.2 17:56:10 10° SSW 18:01:47 86° WNW 18:07:27 10° NNE
SKYMED 3 4.5 17:59:24 10° NNE 18:03:45 74° ESE 18:08:05 10° S
Cosmos 2082 4.2 17:59:09 10° S 18:04:15 37° ESE 18:08:58 12° NE
Cosmos 1340 Rocket 3.3 18:00:29 10° NNW 18:04:24 63° W 18:08:20 10° S
Cosmos 1825 Rocket 3.5 18:03:09 10° S 18:07:28 67° E 18:11:47 10° NNE
Cosmos 2297 Rocket 2.1 18:08:12 10° SSW 18:13:50 83° ESE 18:19:32 10° NNE
FengYun 1-2 T 4.3 18:09:09 10° SSE 18:14:46 86° WSW 18:20:28 10° NNW
USA 267 4.4 18:12:13 10° NE 18:17:51 32° NNW 18:23:28 10° W
Cosmos 1980 3.8 18:12:37 10° NNW 18:18:20 80° WSW 18:24:00 10° SSE
SL-8 Rocket 4.0 18:12:36 10° S 18:18:52 70° E 18:25:08 10° NNE
DELTA 2 R/B(2) 3.9 18:18:37 10° W 18:20:40 47° S 18:21:00 40° SE
Cosmos 2341 Rocket 4.2 18:17:40 10° S 18:24:03 79° W 18:30:27 10° N
Iridium 96 3.4 18:22:59 14° N 18:24:56 85° W 18:27:23 10° S
Cosmos 2219 Rocket 4.5 18:21:03 10° NW 18:25:43 27° WSW 18:30:22 10° SSW
Shenzhou-11 Module 1.8 18:23:28 10° WSW 18:26:06 58° SSE 18:26:25 52° SE
Cosmos 2227 Rocket 2.2 18:20:41 10° SSW 18:26:21 86° WNW 18:32:02 10° NNE
SKYMED 2 4.1 18:23:37 10° N 18:27:54 60° WNW 18:32:10 10° SSW
NOAA 11 4.1 18:22:31 10° SSE 18:27:57 68° ENE 18:33:25 10° N
Ariane Rocket 3.6 18:24:27 10° SE 18:28:53 32° ENE 18:33:21 10° N
USA 116 2.9 18:27:57 23° NNE 18:29:46 75° E 18:32:51 10° S
Cosmos 1939 Rocket 2.7 18:29:04 10° SSE 18:32:54 62° ENE 18:36:50 10° N
SL-8 R/B 3.6 18:31:36 10° WSW 18:36:26 86° NNW 18:38:29 35° ENE
Cosmos 1703 3.1 18:38:48 10° S 18:42:45 85° E 18:45:38 18° N
YAOGAN 1 2.8 18:39:53 10° S 18:44:11 71° WSW 18:48:32 10° NNW
Meteor 2-10 Rocket 3.5 18:39:18 10° N 18:44:38 88° WSW 18:49:44 10° S
Cosmos-2242 3.5 18:41:32 10° NNW 18:45:47 59° W 18:49:59 10° S
H-2A R/B 3.9 18:52:43 14° NNE 18:52:43 14° NNE 18:53:39 10° N
Cosmos 44 3.2 18:45:38 10° SW 18:50:15 74° NW 18:52:10 33° NNE
Cosmos 1821 Rocket 4.4 18:45:57 10° SSE 18:51:46 39° E 18:52:56 36° ENE
Cosmos 2218 Rocket 4.2 18:47:44 10° SSW 18:54:04 76° W 19:00:29 10° N
SL-08 R/B 4.4 18:48:06 10° S 18:54:19 72° E 19:00:42 10° NNE
Cosmos 2251 Rocket 3.4 18:53:42 10° NNW 18:59:00 69° ENE 19:02:01 26° SSE
ISS -2.7 18:58:18 10° WSW 19:01:16 41° NW 19:01:16 41° NW
H-2A ROCKET BODY 3.9 18:58:24 10° WSW 19:02:14 15° SW 19:04:29 10° S
ATLAS CENTAUR R/B 3.3 19:00:01 10° NNW 19:01:19 18° N 19:01:19 18° N
CZ-4 R/B 3.4 19:01:02 10° SSW 19:04:34 30° W 19:08:13 10° NW
Atlas Centaur 2 3.6 19:09:49 10° SW 19:13:52 23° SSE 19:14:16 23° SSE
DELTA 2 R/B (1) 3.5 19:10:58 10° W 19:16:33 71° S 19:17:12 64° SE
Cosmos 2237 Rocket 4.3 19:14:53 10° NW 19:19:28 26° WSW 19:24:03 10° SSW
Cosmos 1000 Rocket 4.4 19:23:23 10° N 19:28:48 64° NE 19:28:48 64° NE
ADEOS Rocket 3.5 19:25:38 10° N 19:32:15 72° WNW 19:39:31 10° SSW
Meteor 1-27 4.2 19:28:18 10° NNW 19:33:52 77° W 19:35:59 39° S
SL-16 R/B 3.1 19:36:43 10° NW 19:42:08 47° WSW 19:45:51 19° S
FALCON 9 R/B 3.9 19:56:04 10° SW 20:05:55 33° S 20:05:55 33° S
